St. James, MN

2:38 PM CDT on July 26, 2017 (GMT -0500)
Saint James Municipal

Weather History for KJYG - July, 2013

Change the Weather History Date:

Wednesday, July 10, 2013

  Actual Average Record
Temperature  
Mean Temperature 69 °F -  
Max Temperature 78 °F 84 °F 101 °F (1976)
Min Temperature 60 °F 61 °F 48 °F (1978)
Cooling Degree Days 4    
Growing Degree Days 19 (Base 50)    
Moisture  
Dew Point 58 °F    
Average Humidity 67    
Maximum Humidity 88    
Minimum Humidity 42    
Precipitation  
Precipitation 0.00 in - - ()
Sea Level Pressure  
Sea Level Pressure 30.07 in    
Wind  
Wind Speed 5 mph (NW)    
Max Wind Speed 14 mph    
Max Gust Speed 20 mph    
Visibility 10 miles    
Events      
Averages and records for this station are not official NWS values.
T = Trace of Precipitation, MM = Missing Value Source: NWS Daily Summary

Daily Weather History Graph

Daily Weather History Graph

Search for Another Location

Airport or City:

Trip Planner

Search our weather history database for the weather conditions in past years. The results will help you decide how hot, cold, wet, or windy it might be!

Date:

Astronomy

Jul. 10, 2013 Rise Set
Actual Time 5:45 AM CDT 9:01 PM CDT
Civil Twilight 5:10 AM CDT 9:36 PM CDT
Nautical Twilight 4:24 AM CDT 10:22 PM CDT
Astronomical Twilight 3:27 AM CDT 11:18 PM CDT
Moon 8:13 AM CDT (7/10) 10:03 PM CDT (7/10)
Length of Visible Light 16h 26m
Length of Day
15h 16m
Waxing Crescent, 5% of the Moon is Illuminated
Jul 10
Waxing Crescent
Jul 15
First Quarter
Jul 22
Full
Jul 29
Last Quarter
Aug 6
New

Hourly Weather History & Observations

Time (CDT) Temp. Dew Point Humidity Pressure Visibility Wind Dir Wind Speed Gust Speed Precip Events Conditions
12:15 AM 71.6 °F 66.2 °F 83% 30.00 in 10.0 mi NW 5.8 mph - N/A   Clear
12:34 AM 71.6 °F 64.4 °F 78% 30.00 in 10.0 mi NW 11.5 mph 16.1 mph N/A   Clear
12:55 AM 69.8 °F 64.4 °F 83% 30.01 in 10.0 mi NW 10.4 mph - N/A   Clear
1:15 AM 69.8 °F 62.6 °F 78% 30.01 in 10.0 mi NW 11.5 mph 19.6 mph N/A   Clear
1:35 AM 68.0 °F 62.6 °F 83% 30.02 in 10.0 mi NW 6.9 mph - N/A   Clear
1:55 AM 66.2 °F 62.6 °F 88% 30.02 in 10.0 mi NW 5.8 mph - N/A   Clear
2:15 AM 66.2 °F 60.8 °F 83% 30.02 in 10.0 mi WNW 4.6 mph - N/A   Clear
2:35 AM 64.4 °F 60.8 °F 88% 30.03 in 10.0 mi Calm Calm - N/A   Clear
2:55 AM 64.4 °F 60.8 °F 88% 30.03 in 10.0 mi Calm Calm - N/A   Clear
3:15 AM 62.6 °F 59.0 °F 88% 30.03 in 10.0 mi Calm Calm - N/A   Clear
3:34 AM 62.6 °F 59.0 °F 88% 30.05 in 10.0 mi Calm Calm - N/A   Clear
3:55 AM 62.6 °F 59.0 °F 88% 30.05 in 10.0 mi Calm Calm - N/A   Clear
4:15 AM 62.6 °F 57.2 °F 82% 30.06 in 10.0 mi NW 3.5 mph - N/A   Clear
4:34 AM 62.6 °F 57.2 °F 82% 30.07 in 10.0 mi Calm Calm - N/A   Clear
4:55 AM 60.8 °F 57.2 °F 88% 30.07 in 10.0 mi Calm Calm - N/A   Clear
5:15 AM 60.8 °F 57.2 °F 88% 30.08 in 10.0 mi Calm Calm - N/A   Clear
5:34 AM 60.8 °F 57.2 °F 88% 30.08 in 10.0 mi Calm Calm - N/A   Clear
5:55 AM 60.8 °F 57.2 °F 88% 30.09 in 10.0 mi Calm Calm - N/A   Clear
6:15 AM 60.8 °F 57.2 °F 88% 30.09 in 10.0 mi Calm Calm - N/A   Clear
6:34 AM 60.8 °F 55.4 °F 82% 30.09 in 10.0 mi Calm Calm - N/A   Clear
6:55 AM 60.8 °F 57.2 °F 88% 30.09 in 10.0 mi Calm Calm - N/A   Clear
7:15 AM 62.6 °F 57.2 °F 82% 30.09 in 7.0 mi Calm Calm - N/A   Clear
7:35 AM 62.6 °F 59.0 °F 88% 30.09 in 10.0 mi Calm Calm - N/A   Clear
7:55 AM 64.4 °F 57.2 °F 77% 30.10 in 10.0 mi Calm Calm - N/A   Clear
8:15 AM 64.4 °F 57.2 °F 77% 30.10 in 10.0 mi Calm Calm - N/A   Clear
8:35 AM 66.2 °F 57.2 °F 73% 30.11 in 10.0 mi Calm Calm - N/A   Clear
8:55 AM 66.2 °F 57.2 °F 73% 30.11 in 10.0 mi NNW 8.1 mph - N/A   Clear
9:15 AM 68.0 °F 57.2 °F 68% 30.11 in 10.0 mi NW 11.5 mph - N/A   Clear
9:35 AM 69.8 °F 57.2 °F 64% 30.11 in 10.0 mi NNW 9.2 mph - N/A   Clear
9:55 AM 69.8 °F 57.2 °F 64% 30.11 in 10.0 mi NNW 9.2 mph - N/A   Clear
10:15 AM 71.6 °F 57.2 °F 60% 30.11 in 10.0 mi NNW 6.9 mph - N/A   Clear
10:35 AM 71.6 °F 57.2 °F 60% 30.11 in 10.0 mi NW 9.2 mph - N/A   Clear
10:54 AM 71.6 °F 57.2 °F 60% 30.10 in 10.0 mi NNW 10.4 mph - N/A   Clear
11:15 AM 73.4 °F 55.4 °F 53% 30.10 in 10.0 mi NNW 10.4 mph - N/A   Clear
11:35 AM 73.4 °F 55.4 °F 53% 30.10 in 10.0 mi NNW 9.2 mph - N/A   Clear
11:54 AM 73.4 °F 57.2 °F 57% 30.10 in 10.0 mi Calm Calm - N/A   Clear
12:15 PM 75.2 °F 55.4 °F 50% 30.10 in 10.0 mi Calm Calm - N/A   Clear
12:35 PM 75.2 °F 55.4 °F 50% 30.10 in 10.0 mi NW 11.5 mph 16.1 mph N/A   Clear
12:54 PM 75.2 °F 55.4 °F 50% 30.10 in 10.0 mi NNW 13.8 mph - N/A   Clear
1:15 PM 75.2 °F 57.2 °F 53% 30.09 in - NW 10.4 mph 17.3 mph N/A   Clear
1:35 PM 77.0 °F 55.4 °F 47% 30.09 in 10.0 mi North 11.5 mph 16.1 mph N/A   Unknown
1:55 PM 77.0 °F 55.4 °F 47% 30.09 in 10.0 mi NNW 11.5 mph - N/A   Clear
2:15 PM 78.8 °F 55.4 °F 44% 30.09 in 10.0 mi NW 10.4 mph 16.1 mph N/A   Clear
2:35 PM 78.8 °F 57.2 °F 47% 30.09 in 10.0 mi WNW 8.1 mph 16.1 mph N/A   Scattered Clouds
2:55 PM 78.8 °F 57.2 °F 47% 30.09 in 10.0 mi NNW 5.8 mph - N/A   Scattered Clouds
3:15 PM 78.8 °F 55.4 °F 44% 30.09 in 10.0 mi NW 6.9 mph - N/A   Scattered Clouds
3:35 PM 78.8 °F 55.4 °F 44% 30.09 in 10.0 mi NW 6.9 mph - N/A   Clear
3:55 PM 78.8 °F 57.2 °F 47% 30.08 in 10.0 mi NNW 6.9 mph - N/A   Clear
4:15 PM 78.8 °F 55.4 °F 44% 30.08 in - NW 4.6 mph - N/A   Scattered Clouds
4:35 PM 78.8 °F 55.4 °F 44% 30.07 in 10.0 mi North 5.8 mph - N/A   Scattered Clouds
4:55 PM 78.8 °F 55.4 °F 44% 30.06 in 10.0 mi North 4.6 mph - N/A   Scattered Clouds
5:15 PM 78.8 °F 53.6 °F 42% 30.06 in 10.0 mi NW 4.6 mph - N/A   Clear
5:34 PM 78.8 °F 55.4 °F 44% 30.06 in 10.0 mi NNW 4.6 mph - N/A   Clear
5:55 PM 78.8 °F 57.2 °F 47% 30.06 in 10.0 mi NW 4.6 mph - N/A   Clear
6:15 PM 78.8 °F 55.4 °F 44% 30.05 in 10.0 mi NW 5.8 mph - N/A   Clear
6:35 PM 77.0 °F 57.2 °F 50% 30.05 in 10.0 mi NNW 4.6 mph - N/A   Clear
6:54 PM 78.8 °F 57.2 °F 47% 30.05 in 10.0 mi Calm Calm - N/A   Clear
7:15 PM 77.0 °F 59.0 °F 54% 30.05 in 10.0 mi Calm Calm - N/A   Clear
7:35 PM 75.2 °F 60.8 °F 61% 30.04 in 10.0 mi Calm Calm - N/A   Clear
7:54 PM 75.2 °F 62.6 °F 65% 30.04 in 10.0 mi North 3.5 mph - N/A   Clear
8:15 PM 73.4 °F 62.6 °F 69% 30.04 in 10.0 mi Calm Calm - N/A   Clear
8:35 PM 71.6 °F 62.6 °F 73% 30.04 in 10.0 mi North 3.5 mph - N/A   Clear
8:55 PM 71.6 °F 60.8 °F 69% 30.05 in 7.0 mi Calm Calm - N/A   Clear
9:15 PM 71.6 °F 60.8 °F 69% 30.05 in 10.0 mi Calm Calm - N/A   Clear
9:35 PM 71.6 °F 59.0 °F 64% 30.06 in 10.0 mi Calm Calm - N/A   Clear
9:55 PM 68.0 °F 60.8 °F 78% 30.06 in 10.0 mi Calm Calm - N/A   Clear
10:14 PM 66.2 °F 59.0 °F 78% 30.07 in 10.0 mi Calm Calm - N/A   Clear
10:35 PM 66.2 °F 60.8 °F 83% 30.07 in 10.0 mi Calm Calm - N/A   Clear
10:55 PM 64.4 °F 59.0 °F 83% 30.07 in 10.0 mi Calm Calm - N/A   Clear
11:15 PM 64.4 °F 57.2 °F 77% 30.08 in 10.0 mi Calm Calm - N/A   Clear
11:35 PM 64.4 °F 57.2 °F 77% 30.09 in 10.0 mi Calm Calm - N/A   Clear
11:54 PM 64.4 °F 57.2 °F 77% 30.09 in 10.0 mi Calm Calm - N/A   Clear